Tracking 22223 objects as of 26-Jan-2021
HD Live streaming from Space Station
objects crossing your sky now

INSAT 4A

Track INSAT 4A now!
INSAT 4A is classified as:


NORAD ID: 28911
Int'l Code: 2005-049A
Perigee: 36,097.4 km
Apogee: 36,098.8 km
Inclination: 1.4 °
Period: 1,451.7 minutes
Semi major axis: 42469 km
RCS: 12.5892 m2 (large)
Launch date: December 21, 2005
Source: India (IND)
Launch site: FRENCH GUIANA (FRGUI)
aabbcc
Your satellite tracking list
Your tracking list is empty




NASA's NSSDC Master Catalog

Two Line Element Set (TLE):
1 28911U 05049A   21025.88243507 -.00000047  00000-0  00000-0 0  9998
2 28911   1.4132  95.2934 0000167 334.6798 107.3371  0.99195822 25903
Source of the keplerian elements: AFSPC